Leadville, CO

9:21 AM MDT on September 29, 2016 (GMT -0600)
Lake County

Weather History for KLXV - October, 2013

Change the Weather History Date:

Friday, October 4, 2013

  Actual Average Record
Temperature  
Mean Temperature 31 °F -  
Max Temperature 44 °F 54 °F 68 °F (1997)
Min Temperature 17 °F 26 °F 17 °F (2013)
Degree Days  
Heating Degree Days 34 25  
Month to date heating degree days 94 97  
Since 1 July heating degree days 1176 1395  
Cooling Degree Days 0 0  
Month to date cooling degree days 0 0  
Year to date cooling degree days 0 0  
Moisture  
Dew Point 17 °F    
Average Humidity 73    
Maximum Humidity 100    
Minimum Humidity 45    
Precipitation  
Precipitation 0.11 in 0.03 in 0.31 in (2011)
Month to date precipitation 0.11 0.12  
Year to date precipitation 15.33 10.15  
Sea Level Pressure  
Sea Level Pressure 29.98 in    
Wind  
Wind Speed 12 mph (NW)    
Max Wind Speed 26 mph    
Max Gust Speed 35 mph    
Visibility 5 miles    
Events Fog , Snow    
T = Trace of Precipitation, MM = Missing Value Source: NWS Daily Summary

Daily Weather History Graph

Daily Weather History Graph

Search for Another Location

Airport or City:

Trip Planner

Search our weather history database for the weather conditions in past years. The results will help you decide how hot, cold, wet, or windy it might be!

Date:

Astronomy

Oct. 04, 2013 Rise Set
Actual Time 7:04 AM MDT 6:42 PM MDT
Civil Twilight 6:37 AM MDT 7:09 PM MDT
Nautical Twilight 6:06 AM MDT 7:40 PM MDT
Astronomical Twilight 5:35 AM MDT 8:11 PM MDT
Moon 6:42 AM MDT (10/4) 6:27 PM MDT (10/4)
Length of Visible Light 12h 31m
Length of Day
11h 38m
Waning Crescent, 0% of the Moon is Illuminated
Oct 4
Waning Crescent
Oct 4
New
Oct 11
First Quarter
Oct 18
Full
Oct 26
Last Quarter

Hourly Weather History & Observations

Time (MDT) Temp. Windchill Dew Point Humidity Pressure Visibility Wind Dir Wind Speed Gust Speed Precip Events Conditions
12:53 AM 43.0 °F 35.7 °F 23.0 °F 45% 29.36 in 10.0 mi South 15.0 mph - N/A   Overcast
1:53 AM 30.9 °F 19.8 °F 23.0 °F 72% 29.53 in 9.0 mi NNW 16.1 mph 26.5 mph 0.00 in Snow Light Snow
2:10 AM 28.4 °F 14.7 °F 23.0 °F 80% 29.92 in 1.8 mi NNW 21.9 mph 31.1 mph 0.00 in Snow Light Snow
2:15 AM 26.6 °F 12.7 °F 23.0 °F 86% 29.92 in 0.8 mi NNW 20.7 mph 29.9 mph 0.00 in Snow Light Snow
2:17 AM 26.6 °F 13.4 °F 23.0 °F 86% 29.93 in 0.5 mi NNW 18.4 mph 31.1 mph 0.00 in Fog , Snow Snow
2:27 AM 26.6 °F 16.2 °F 24.8 °F 93% 29.94 in 0.5 mi NNW 11.5 mph 27.6 mph 0.01 in Fog , Snow Snow
2:38 AM 26.6 °F 14.7 °F 24.8 °F 93% 29.95 in 0.2 mi NNW 15.0 mph 31.1 mph 0.02 in Fog , Snow Snow
2:48 AM 26.6 °F 15.2 °F 24.8 °F 93% 29.95 in 0.2 mi North 13.8 mph 24.2 mph 0.05 in Fog , Snow Heavy Snow
2:53 AM 25.0 °F 16.3 °F 24.1 °F 96% 29.61 in 0.5 mi NNW 8.1 mph 21.9 mph 0.05 in Fog , Snow Snow
3:02 AM 24.8 °F 15.3 °F 23.0 °F 93% 29.96 in 0.2 mi NNE 9.2 mph 18.4 mph 0.03 in Fog , Snow Heavy Snow
3:13 AM 24.8 °F 16.1 °F 23.0 °F 93% 29.96 in 0.5 mi North 8.1 mph 19.6 mph 0.05 in Fog , Snow Snow
3:25 AM 24.8 °F 15.3 °F 23.0 °F 93% 29.96 in 1.2 mi North 9.2 mph - 0.05 in Snow Light Snow
3:33 AM 26.6 °F 20.0 °F 21.2 °F 80% 29.97 in 1.2 mi Variable 5.8 mph 16.1 mph 0.05 in Snow Light Snow
3:41 AM 26.6 °F 16.2 °F 21.2 °F 80% 29.97 in 3.0 mi North 11.5 mph - 0.05 in Snow Light Snow
3:53 AM 26.1 °F 18.4 °F 21.0 °F 81% 29.63 in 6.0 mi North 6.9 mph - 0.05 in Snow Light Snow
4:53 AM 26.1 °F - 19.9 °F 78% 29.58 in 10.0 mi Calm Calm - 0.00 in   Mostly Cloudy
5:51 AM 24.8 °F 14.6 °F 21.2 °F 86% 29.95 in 1.8 mi WNW 10.4 mph 18.4 mph 0.00 in Snow Light Snow
5:53 AM 24.1 °F 18.2 °F 21.0 °F 88% 29.64 in 1.2 mi Variable 4.6 mph 18.4 mph 0.00 in Snow Light Snow
6:03 AM 24.8 °F 16.9 °F 19.4 °F 80% 29.95 in 3.0 mi NW 6.9 mph - 0.00 in Snow Light Snow
6:21 AM 24.8 °F 16.1 °F 17.6 °F 74% 29.96 in 10.0 mi WNW 8.1 mph - 0.00 in   Mostly Cloudy
6:32 AM 23.0 °F 9.6 °F 19.4 °F 86% 29.97 in 1.5 mi NW 16.1 mph 24.2 mph 0.00 in Snow Light Snow
6:40 AM 23.0 °F 10.6 °F 19.4 °F 86% 29.98 in 0.8 mi NW 13.8 mph 23.0 mph 0.00 in Snow Light Snow
6:50 AM 23.0 °F 10.1 °F 19.4 °F 86% 29.98 in 1.2 mi NW 15.0 mph 21.9 mph 0.01 in Snow Light Snow
6:53 AM 23.0 °F 11.1 °F 19.0 °F 85% 29.72 in 1.8 mi NW 12.7 mph 21.9 mph 0.01 in Snow Light Snow
6:57 AM 23.0 °F 11.1 °F 19.4 °F 86% 29.99 in 3.0 mi NW 12.7 mph 21.9 mph 0.00 in Snow Light Snow
7:11 AM 21.2 °F 12.6 °F 17.6 °F 86% 29.99 in 5.0 mi North 6.9 mph 17.3 mph 0.00 in Snow Light Snow
7:37 AM 21.2 °F 9.5 °F 15.8 °F 80% 30.00 in 9.0 mi NNW 11.5 mph 20.7 mph 0.00 in   Overcast
7:53 AM 21.0 °F 8.6 °F 15.1 °F 78% 29.77 in 4.0 mi NW 12.7 mph 25.3 mph 0.00 in Snow Light Snow
8:02 AM 21.2 °F 6.8 °F 15.8 °F 80% 30.01 in 2.0 mi NW 17.3 mph 25.3 mph 0.00 in Snow Light Snow
8:15 AM 21.2 °F 7.8 °F 15.8 °F 80% 30.02 in 4.0 mi NW 15.0 mph 26.5 mph 0.00 in Snow Light Snow
8:50 AM 24.8 °F 11.9 °F 15.8 °F 69% 30.03 in 10.0 mi NW 16.1 mph 24.2 mph 0.00 in   Scattered Clouds
8:53 AM 24.1 °F 10.6 °F 15.1 °F 69% 29.79 in 10.0 mi NW 17.3 mph 28.8 mph 0.00 in   Scattered Clouds
9:53 AM 25.0 °F 11.3 °F 14.0 °F 63% 29.81 in 10.0 mi NW 18.4 mph 26.5 mph N/A   Partly Cloudy
10:53 AM 26.1 °F 13.1 °F 15.1 °F 63% 29.86 in 10.0 mi WNW 17.3 mph 27.6 mph N/A   Scattered Clouds
11:53 AM 28.0 °F 14.3 °F 12.9 °F 53% 29.85 in 10.0 mi WNW 21.9 mph 26.5 mph N/A   Clear
12:49 PM 26.6 °F 13.8 °F 15.8 °F 64% 30.10 in 7.0 mi West 17.3 mph 34.5 mph 0.00 in Snow Light Snow
12:53 PM 28.0 °F 14.9 °F 12.9 °F 53% 29.83 in 8.0 mi West 19.6 mph 29.9 mph 0.00 in   Partly Cloudy
1:53 PM 28.9 °F 18.2 °F 14.0 °F 54% 29.92 in 10.0 mi WNW 13.8 mph 24.2 mph 0.00 in   Partly Cloudy
2:33 PM 24.8 °F 11.1 °F 17.6 °F 74% 30.12 in 1.5 mi WNW 18.4 mph 28.8 mph 0.00 in Snow Light Snow
2:40 PM 24.8 °F 14.6 °F 17.6 °F 74% 30.12 in 0.5 mi West 10.4 mph 26.5 mph 0.00 in Snow Snow
2:47 PM 26.6 °F 20.0 °F 17.6 °F 69% 30.12 in 2.5 mi Variable 5.8 mph - 0.00 in Snow Light Snow
2:53 PM 28.9 °F 17.7 °F 16.0 °F 58% 29.99 in 9.0 mi WNW 15.0 mph 20.7 mph 0.00 in   Mostly Cloudy
3:29 PM 26.6 °F 16.8 °F 15.8 °F 64% 30.14 in 7.0 mi NW 10.4 mph 24.2 mph 0.00 in Snow Light Snow
3:53 PM 28.9 °F 16.5 °F 14.0 °F 54% 30.01 in 10.0 mi WNW 18.4 mph 24.2 mph 0.00 in   Scattered Clouds
4:53 PM 26.1 °F 14.0 °F 12.9 °F 58% 30.06 in 9.0 mi West 15.0 mph 25.3 mph 0.00 in Snow Light Snow
5:38 PM 24.8 °F 14.6 °F 10.4 °F 54% 30.20 in 10.0 mi WNW 10.4 mph 24.2 mph 0.00 in   Scattered Clouds
5:53 PM 25.0 °F 14.8 °F 10.0 °F 53% 30.11 in 10.0 mi WNW 10.4 mph - 0.00 in   Partly Cloudy
6:53 PM 21.9 °F 9.8 °F 10.9 °F 63% 30.14 in 10.0 mi WNW 12.7 mph 21.9 mph N/A   Scattered Clouds
7:25 PM 21.2 °F 9.5 °F 12.2 °F 68% 30.22 in 10.0 mi WNW 11.5 mph - N/A   Mostly Cloudy
7:53 PM 19.9 °F 8.6 °F 15.1 °F 81% 30.19 in 3.0 mi NNW 10.4 mph - 0.00 in Snow Light Snow
7:57 PM 19.4 °F 8.6 °F 15.8 °F 86% 30.23 in 2.5 mi NNW 9.2 mph - 0.00 in Snow Light Snow
8:07 PM 19.4 °F 9.5 °F 14.0 °F 80% 30.23 in 3.0 mi North 8.1 mph - 0.00 in Snow Light Snow
8:53 PM 19.9 °F 8.6 °F 14.0 °F 78% 30.18 in 4.0 mi North 10.4 mph - 0.00 in Snow Light Snow
9:48 PM 19.4 °F 8.6 °F 14.0 °F 80% 30.24 in 2.0 mi North 9.2 mph - 0.00 in Snow Light Snow
9:53 PM 19.0 °F 8.2 °F 14.0 °F 81% 30.19 in 2.0 mi NNW 9.2 mph - 0.00 in Snow Light Snow
10:17 PM 19.4 °F 7.9 °F 12.2 °F 74% 30.24 in 4.0 mi North 10.4 mph - 0.00 in Snow Light Snow
10:53 PM 18.0 °F 6.9 °F 10.9 °F 74% 30.19 in 10.0 mi North 9.2 mph - 0.00 in   Mostly Cloudy
11:08 PM 17.6 °F 9.3 °F 12.2 °F 79% 30.24 in 10.0 mi North 5.8 mph - N/A   Overcast
11:53 PM 19.0 °F 11.1 °F 12.9 °F 77% 30.16 in 10.0 mi North 5.8 mph - N/A   Overcast